#timestamp,LO_Frequency,Hit,StdDev 
1547578815.2,286046998.3,N
1547578835.0,286046998.7,N
1547578835.9,286046998.7,N
1547578855.8,286046998.5,N
1547578875.6,286046999.0,N
1547578895.4,286046996.9,N
1547578915.3,286046997.0,N
1547578935.1,286046998.1,N
1547578955.9,286047003.8,N
1547578975.7,286047004.6,N
1547578995.5,286047006.5,N
1547579015.4,286047009.2,Y
1547579035.2,286047007.0,P
1547579055.1,286047003.0,N
1547579056.0,286047003.0,N
1547579075.8,286047002.1,N
1547579095.6,286047000.4,N
1547579115.5,286046999.0,N
1547579135.3,286046998.9,N
1547579155.2,286046996.9,N
1547579175.9,286046998.0,N
1547579195.7,286046996.6,N
1547579215.6,286046998.2,N
1547579235.4,286047001.1,N
1547579255.2,286047001.1,N
1547579275.1,286046998.3,N
1547579276.0,286046998.3,N
1547579295.8,286046998.8,N
1547579315.7,286046999.1,N
1547579335.5,286046997.0,N
1547579355.3,286046999.4,N
1547579375.2,286046999.0,N
1547579395.0,286046995.5,N
1547579395.9,286046995.5,N
1547579415.7,286046998.5,N
1547579435.6,286046998.3,N
1547579455.4,286046997.8,N
1547579475.3,286046997.9,N
1547579495.1,286046997.7,N
1547579496.0,286046997.7,N
1547579515.8,286046997.5,N
1547579535.7,286046996.7,N
1547579555.5,286046996.5,N
1547579575.3,286046998.4,N
1547579595.2,286046997.5,N
1547579615.0,286046999.1,N
1547579615.9,286046999.1,N
1547579635.8,286046998.7,N
1547579655.6,286046997.2,N
1547579675.4,286046995.3,Y
1547579695.3,286046996.8,P
1547579715.1,286046998.8,N
1547579735.8,286046999.2,N
1547579755.7,286046998.5,N
1547579775.5,286047000.0,N
1547579795.4,286047004.9,Y
1547579815.2,286047008.9,P
1547579835.0,286047008.7,N
1547579835.9,286047008.7,N
1547579855.8,286047005.4,N
1547579875.6,286047003.3,N
1547579895.4,286047004.4,N
1547579915.3,286047002.2,N
1547579935.1,286047001.3,N
1547579955.9,286047001.6,N
1547579975.7,286047001.9,N
1547579995.5,286047002.4,N
1547580015.4,286047002.8,N
1547580035.2,286046999.8,N
1547580055.0,286047001.9,N
1547580055.9,286047001.9,N
1547580075.8,286047003.2,N
1547580095.6,286047006.0,N
1547580115.5,286047001.6,N
1547580135.3,286047003.9,N
1547580155.1,286047004.1,N
1547580175.9,286047000.1,N
1547580195.7,286046998.8,N
1547580215.5,286046999.1,N
1547580235.4,286046998.7,N
1547580255.2,286046998.5,N
1547580275.1,286046998.5,N
1547580276.0,286046998.5,N
1547580295.8,286046998.6,N
1547580315.6,286046999.9,N
1547580335.5,286046998.9,N
1547580355.3,286046996.6,N
1547580375.1,286046999.6,N
1547580395.9,286046999.2,N
1547580415.7,286046998.7,N
1547580435.6,286046998.3,N
1547580455.4,286047000.9,N
1547580475.2,286047002.8,N
1547580495.1,286047001.5,N
1547580496.0,286047001.5,N
1547580515.8,286047001.3,N
1547580535.6,286047003.4,N
1547580555.5,286047004.5,N
1547580575.3,286047005.3,N
1547580595.2,286047004.7,N
1547580615.9,286047005.8,N
1547580635.7,286047003.4,N
1547580655.6,286047004.1,N
1547580675.4,286047002.1,N
1547580695.2,286047003.1,N
1547580715.1,286047004.6,N
1547580716.0,286047004.6,N
1547580735.8,286047004.8,N
1547580755.7,286047003.7,N
1547580775.5,286047002.3,N
1547580795.3,286046999.9,N
1547580815.2,286046999.9,N
1547580835.0,286047000.8,N
1547580835.9,286047000.8,N
1547580855.7,286046998.4,N
1547580875.6,286046998.1,N
1547580895.4,286046999.0,N
1547580915.3,286046998.6,N
1547580935.1,286047002.4,N
1547580936.0,286047002.4,N
1547580955.8,286047001.4,N
1547580975.7,286047002.8,N
1547580995.5,286047000.4,N
1547581015.3,286047000.2,N
1547581035.2,286047002.4,N
1547581055.0,286047000.4,N
1547581055.9,286047000.4,N
1547581075.8,286047000.0,N
1547581095.6,286046999.4,N
1547581115.4,286047000.8,N
1547581135.3,286046999.4,N
1547581155.1,286046999.2,N
1547581175.9,286046998.7,N
1547581195.7,286047000.8,N
1547581215.5,286046998.7,N
1547581235.4,286046998.4,N
1547581255.2,286047000.8,N
1547581275.0,286047002.8,N
1547581275.9,286047002.8,N
1547581295.8,286047000.3,N
1547581315.6,286046998.1,N
1547581335.5,286046998.2,N
1547581355.3,286046998.7,N
1547581375.1,286046997.2,N
1547581395.9,286046998.9,N
1547581415.7,286046998.5,N
1547581435.5,286047000.8,N
1547581455.4,286046999.8,N
1547581475.2,286047000.3,N
1547581495.1,286047000.5,N
1547581496.0,286047000.5,N
1547581515.8,286047000.5,N
1547581535.6,286047000.9,N
1547581555.5,286046998.2,N
1547581575.3,286047000.7,N
1547581595.1,286046998.3,N
1547581615.9,286047000.5,N
1547581635.7,286047000.6,N
1547581655.6,286047001.0,N
1547581675.4,286047000.9,N
1547581695.2,286046998.7,N
1547581715.1,286047000.8,N
1547581716.0,286047000.8,N
1547581735.8,286047000.3,N
1547581755.6,286047000.2,N
1547581775.5,286047000.2,N
1547581795.3,286046999.7,N
1547581815.2,286047002.6,N
1547581835.9,286047001.8,N
1547581855.7,286047001.5,N
1547581875.6,286047002.0,N
1547581895.4,286047004.2,Y
1547581915.3,286047001.8,P
1547581935.1,286047001.8,N
1547581936.0,286047001.8,N
1547581955.8,286047004.2,Y
1547581975.7,286047002.7,P
1547581995.5,286047000.3,N
1547582015.3,286047001.1,N
1547582035.2,286046998.4,N
1547582055.0,286046996.5,N
1547582055.9,286046996.5,N
1547582075.8,286046996.5,N
1547582095.6,286046999.6,N
1547582115.4,286046998.2,N
1547582135.3,286046996.6,N
1547582155.1,286046998.2,N
1547582175.8,286046998.1,N
1547582195.7,286047000.5,N
1547582215.5,286047000.8,N
1547582235.4,286046998.4,N
1547582255.2,286046996.7,N
1547582275.0,286046996.9,N
1547582275.9,286046996.9,N
1547582295.8,286046998.9,N
1547582315.6,286047000.6,N
1547582335.5,286046998.1,N
1547582355.3,286047000.8,N
1547582375.1,286046998.8,N
1547582395.9,286046996.9,N
